Location: Rowland
(34.5359°N, 79.2929°W)
Time: 14:16:46
(UTC+00:00)

Vanguard 3 - Visible Passes

Search period start: 03 October 2022 00:00
Search period end: 13 October 2022 00:00
Orbit: 508 x 3257 km, 33.3° (Epoch: 02 October)

Date Brightness Start Highest point End Pass type
(mag) Time Alt. Az. Time Alt. Az. Time Alt. Az.
07 Oct 8.8 10:47:43 10° SSW 10:50:11 16° SSE 10:52:34 10° ESE visible
09 Oct 8.4 10:29:31 10° SSW 10:32:46 21° SSE 10:35:38 10° ESE visible
10 Oct 9.1 09:17:09 12° S 09:18:23 13° SSE 09:20:18 10° SE visible
11 Oct 8.0 10:11:27 10° SW 10:15:22 28° SSE 10:18:38 10° E visible
12 Oct 8.8 09:01:10 18° SSE 09:01:10 18° SSE 09:04:01 10° ESE visible
